• în România
  • Lista ţărilor
  • Pe 7 zile
  • Temperatura apei
  • Hartă satelitară
  • Meteo pe hartă
  • Widget-uri
  • user-avatar
    Intrare

    Meteo pe oră la Mayrhofen

    Astăzi, 20 Noiembrie, Luni

    Timp Temperatura Precipitaţii Vânt Presiune Umiditate
    00:00 -9°C° 0,1 mm 2 m/s 615 mmHg 92%
    01:00 -9°C° 0 mm 2 m/s 615 mmHg 93%
    02:00 -9°C° 0 mm 2 m/s 615 mmHg 92%
    03:00 -10°C° 0 mm 2 m/s 615 mmHg 92%
    04:00 -10°C° 0 mm 2 m/s 615 mmHg 92%
    05:00 -12°C° 0 mm 2 m/s 615 mmHg 90%
    06:00 -12°C° 0 mm 2 m/s 614 mmHg 88%
    07:00 -10°C° 0 mm 3 m/s 615 mmHg 87%
    08:00 -8°C° 0 mm 2 m/s 615 mmHg 84%
    09:00 -7°C° 0 mm 2 m/s 616 mmHg 80%
    10:00 -5°C° 0 mm 2 m/s 616 mmHg 77%
    11:00 -2°C° 0 mm 1 m/s 617 mmHg 74%
    12:00 -1°C° 0 mm 1 m/s 617 mmHg 71%
    13:00 0°C° 0 mm 1 m/s 617 mmHg 67%
    14:00 -1°C° 0,3 mm 1 m/s 616 mmHg 74%
    15:00 -1°C° 0,3 mm 1 m/s 616 mmHg 80%
    16:00 -2°C° 0,3 mm 1 m/s 615 mmHg 86%
    17:00 -2°C° 0,6 mm 1 m/s 615 mmHg 87%
    18:00 -4°C° 0,6 mm 2 m/s 615 mmHg 88%
    19:00 -5°C° 0,6 mm 2 m/s 615 mmHg 89%
    20:00 -4°C° 0,3 mm 2 m/s 615 mmHg 89%
    21:00 -4°C° 0,3 mm 2 m/s 615 mmHg 88%
    22:00 -4°C° 0,3 mm 2 m/s 615 mmHg 88%
    23:00 -4°C° 0,1 mm 2 m/s 615 mmHg 87%

    Mâine, 21 Noiembrie, Marţi

    Timp Temperatura Precipitaţii Vânt Presiune Umiditate
    00:00 -4°C° 0,1 mm 2 m/s 615 mmHg 86%
    01:00 -4°C° 0,1 mm 2 m/s 615 mmHg 85%
    02:00 -4°C° 0,1 mm 2 m/s 615 mmHg 86%
    03:00 -4°C° 0,1 mm 2 m/s 615 mmHg 86%
    04:00 -4°C° 0,1 mm 2 m/s 614 mmHg 87%
    05:00 -4°C° 0,4 mm 2 m/s 615 mmHg 88%
    06:00 -3°C° 0,4 mm 2 m/s 615 mmHg 89%
    07:00 -2°C° 0,4 mm 2 m/s 615 mmHg 90%
    08:00 -2°C° 0,4 mm 2 m/s 616 mmHg 90%
    09:00 -1°C° 0,4 mm 2 m/s 616 mmHg 90%
    10:00 +1°C° 0,4 mm 2 m/s 617 mmHg 90%
    11:00 +2°C° 0,1 mm 2 m/s 617 mmHg 90%
    12:00 +2°C° 0,1 mm 2 m/s 617 mmHg 91%
    13:00 +3°C° 0,1 mm 2 m/s 617 mmHg 91%
    14:00 +4°C° 0,4 mm 1 m/s 617 mmHg 92%
    15:00 +3°C° 0,4 mm 1 m/s 616 mmHg 92%
    16:00 +3°C° 0,4 mm 1 m/s 616 mmHg 92%
    17:00 +2°C° 0,1 mm 1 m/s 616 mmHg 92%
    18:00 +1°C° 0,1 mm 1 m/s 616 mmHg 91%
    19:00 -2°C° 0,1 mm 2 m/s 616 mmHg 91%
    20:00 0°C° 0 mm 1 m/s 616 mmHg 90%
    21:00 0°C° 0 mm 1 m/s 616 mmHg 89%
    22:00 -1°C° 0 mm 1 m/s 616 mmHg 88%
    23:00 -1°C° 0 mm 1 m/s 616 mmHg 86%

    Poimâine, 22 Noiembrie, Miercuri

    Timp Temperatura Precipitaţii Vânt Presiune Umiditate
    00:00 -1°C° 0 mm 1 m/s 616 mmHg 84%
    01:00 -1°C° 0 mm 1 m/s 616 mmHg 83%
    02:00 -3°C° 0 mm 2 m/s 615 mmHg 82%
    03:00 -3°C° 0 mm 2 m/s 615 mmHg 81%
    04:00 -3°C° 0 mm 2 m/s 615 mmHg 80%
    05:00 -3°C° 0 mm 2 m/s 615 mmHg 79%
    06:00 -3°C° 0 mm 2 m/s 615 mmHg 79%
    07:00 -3°C° 0 mm 2 m/s 615 mmHg 78%
    08:00 -2°C° 0 mm 2 m/s 616 mmHg 80%
    09:00 +1°C° 0 mm 2 m/s 616 mmHg 81%
    10:00 +2°C° 0 mm 2 m/s 617 mmHg 82%
    11:00 +3°C° 0 mm 2 m/s 617 mmHg 84%
    12:00 +4°C° 0 mm 2 m/s 617 mmHg 87%
    13:00 +5°C° 0 mm 2 m/s 617 mmHg 90%
    14:00 +4°C° 0 mm 2 m/s 616 mmHg 88%
    15:00 +3°C° 0 mm 2 m/s 616 mmHg 87%
    16:00 +2°C° 0 mm 2 m/s 615 mmHg 85%
    17:00 +1°C° 0 mm 2 m/s 615 mmHg 85%
    18:00 -1°C° 0 mm 2 m/s 615 mmHg 84%
    19:00 -2°C° 0 mm 2 m/s 615 mmHg 84%
    20:00 -2°C° 0 mm 2 m/s 615 mmHg 84%
    21:00 -3°C° 0 mm 2 m/s 615 mmHg 84%
    22:00 -4°C° 0 mm 3 m/s 615 mmHg 83%
    23:00 -4°C° 0 mm 3 m/s 615 mmHg 83%

    23 Noiembrie, Joi

    Timp Temperatura Precipitaţii Vânt Presiune Umiditate
    00:00 -4°C° 0 mm 3 m/s 615 mmHg 83%
    01:00 -4°C° 0 mm 3 m/s 615 mmHg 83%
    02:00 -3°C° 0 mm 2 m/s 615 mmHg 82%
    03:00 -3°C° 0 mm 2 m/s 615 mmHg 82%
    04:00 -4°C° 0 mm 2 m/s 615 mmHg 81%
    05:00 -4°C° 0 mm 2 m/s 615 mmHg 79%
    06:00 -4°C° 0 mm 2 m/s 615 mmHg 77%
    07:00 -4°C° 0 mm 2 m/s 615 mmHg 76%
    08:00 0°C° 0 mm 1 m/s 616 mmHg 76%
    09:00 +2°C° 0 mm 1 m/s 617 mmHg 76%
    10:00 +3°C° 0 mm 1 m/s 618 mmHg 76%
    11:00 +4°C° 0 mm 1 m/s 618 mmHg 79%
    12:00 +5°C° 0 mm 1 m/s 618 mmHg 82%
    13:00 +6°C° 0 mm 1 m/s 618 mmHg 84%
    14:00 +4°C° 0 mm 0 m/s 618 mmHg 80%
    15:00 +3°C° 0 mm 0 m/s 618 mmHg 76%
    16:00 +2°C° 0 mm 0 m/s 618 mmHg 72%
    17:00 +2°C° 0 mm 1 m/s 618 mmHg 72%
    18:00 +1°C° 0 mm 1 m/s 618 mmHg 71%
    19:00 0°C° 0 mm 1 m/s 618 mmHg 71%
    20:00 0°C° 0 mm 1 m/s 618 mmHg 71%
    21:00 -2°C° 0 mm 2 m/s 618 mmHg 70%
    22:00 -3°C° 0 mm 2 m/s 619 mmHg 70%
    23:00 -3°C° 0 mm 2 m/s 618 mmHg 70%

    24 Noiembrie, Vineri

    Timp Temperatura Precipitaţii Vânt Presiune Umiditate
    00:00 -3°C° 0 mm 2 m/s 618 mmHg 70%
    01:00 -3°C° 0 mm 2 m/s 618 mmHg 70%
    02:00 -3°C° 0 mm 2 m/s 618 mmHg 70%
    03:00 -3°C° 0 mm 2 m/s 618 mmHg 70%
    04:00 -4°C° 0 mm 2 m/s 618 mmHg 69%
    05:00 -4°C° 0 mm 2 m/s 618 mmHg 69%
    06:00 -4°C° 0 mm 2 m/s 618 mmHg 68%
    07:00 -4°C° 0 mm 2 m/s 618 mmHg 68%
    08:00 -2°C° 0 mm 2 m/s 619 mmHg 69%
    09:00 -1°C° 0 mm 2 m/s 619 mmHg 69%
    10:00 +2°C° 0 mm 2 m/s 620 mmHg 70%
    11:00 +3°C° 0 mm 2 m/s 620 mmHg 72%
    12:00 +4°C° 0 mm 2 m/s 620 mmHg 74%
    13:00 +5°C° 0 mm 2 m/s 620 mmHg 76%
    14:00 +4°C° 0 mm 2 m/s 619 mmHg 74%
    15:00 +3°C° 0 mm 2 m/s 619 mmHg 73%
    16:00 +1°C° 0 mm 2 m/s 618 mmHg 71%
    17:00 -1°C° 0 mm 2 m/s 618 mmHg 70%
    18:00 -1°C° 0 mm 2 m/s 618 mmHg 69%
    19:00 -2°C° 0 mm 2 m/s 618 mmHg 68%
    20:00 -2°C° 0 mm 2 m/s 618 mmHg 68%
    21:00 -2°C° 0 mm 2 m/s 618 mmHg 67%
    22:00 -2°C° 0 mm 2 m/s 618 mmHg 67%
    23:00 -1°C° 0 mm 2 m/s 618 mmHg 67%

    25 Noiembrie, Sâmbătă

    Timp Temperatura Precipitaţii Vânt Presiune Umiditate
    00:00 -1°C° 0 mm 2 m/s 618 mmHg 67%
    01:00 -1°C° 0 mm 2 m/s 618 mmHg 67%
    02:00 -1°C° 0 mm 2 m/s 618 mmHg 68%
    03:00 -1°C° 0 mm 2 m/s 617 mmHg 68%
    04:00 -1°C° 0 mm 2 m/s 617 mmHg 69%
    05:00 -2°C° 0 mm 2 m/s 617 mmHg 70%
    06:00 -2°C° 0 mm 2 m/s 617 mmHg 71%
    07:00 -3°C° 0 mm 2 m/s 617 mmHg 72%
    08:00 -1°C° 0 mm 2 m/s 617 mmHg 72%
    09:00 +1°C° 0 mm 2 m/s 618 mmHg 73%
    10:00 +3°C° 0 mm 2 m/s 618 mmHg 73%
    11:00 +3°C° 0 mm 2 m/s 618 mmHg 76%
    12:00 +4°C° 0 mm 2 m/s 618 mmHg 79%
    13:00 +5°C° 0 mm 2 m/s 618 mmHg 82%
    14:00 +4°C° 0 mm 2 m/s 618 mmHg 83%
    15:00 +4°C° 0 mm 1 m/s 617 mmHg 83%
    16:00 +3°C° 0 mm 1 m/s 617 mmHg 84%
    17:00 +2°C° 0 mm 1 m/s 617 mmHg 86%
    18:00 +2°C° 0 mm 1 m/s 617 mmHg 87%
    19:00 +2°C° 0 mm 1 m/s 617 mmHg 88%
    20:00 +1°C° 0 mm 1 m/s 618 mmHg 89%
    21:00 +1°C° 0 mm 1 m/s 618 mmHg 90%
    22:00 +1°C° 0 mm 1 m/s 618 mmHg 91%
    23:00 +1°C° 0,2 mm 1 m/s 618 mmHg 92%
    Arată mai mult